User: anonymous   Login
Location: Edoum�
(0.9447°N, 10.6482°E)
Time: 16:25:04
(UTC+00:00)
Language:

Iridium 4 Rocket - Orbit

View from above orbital plane
View from above orbital plane
View from above satellite
View from above satellite

Ground track
Ground track

The orbit data is extracted from the following two-line orbital elements,

1 24797U 97020F   20224.93467038 +.00000062 +00000-0 +68943-5 0  9990
2 24797 086.8946 291.5125 0227258 076.8757 093.6993 14.44183939224129
Epoch (UTC): 11 August 2020 22:25:55
Eccentricity: 0.0227258
inclination: 86.8946°
perigee height: 583 km
apogee height: 906 km
right ascension of ascending node: 291.5125°
argument of perigee: 76.8757°
revolutions per day: 14.44183939
mean anomaly at epoch: 93.6993°
orbit number at epoch: 22412

The dashed part of the orbit path shows where the satellite is in the earth's shadow,  

DLR